Location: Niverville
(49.6028°N, 97.0419°W)
Time: 00:28:59
(UTC-05:00)

Daily predictions for brighter satellites

Satellite Brightness Start Highest point End
(mag) Time Altitude Azimuth Time Altitude Azimuth Time Altitude Azimuth
ATLAS 5 CENTAUR R/B 3.6 00:02:58 10° W 00:07:24 31° NNW 00:12:15 10° NE
Cosmos 2219 4.4 00:11:54 10° NNW 00:15:21 39° NNW 00:15:21 39° NNW
ATLAS 3B R/B 4.3 00:26:04 24° ENE 00:26:04 24° ENE 00:28:45 10° NE
USA 215 3.8 00:21:32 10° ENE 00:27:53 55° NNW 00:34:13 10° W
Lacrosse 5 4.4 00:53:38 10° WNW 00:54:34 15° NW 00:54:34 15° NW
Cosmos 2297 Rocket 3.8 00:53:49 10° NNW 00:56:54 31° N 00:56:54 31° N
Cosmos 2369 Rocket 4.1 01:14:18 23° NW 01:14:31 23° NW 01:18:56 10° N
Cosmos 2227 Rocket 4.0 01:19:22 10° NNW 01:21:51 27° NNW 01:21:51 27° NNW
CZ-4C R/B 3.7 01:29:52 35° N 01:29:52 35° N 01:35:00 10° NE
Cosmos 1943 Rocket 4.1 01:50:12 23° NNW 01:50:12 23° NNW 01:54:09 10° NNE
ATLAS 5 CENTAUR R/B 4.5 01:49:57 10° NW 01:53:47 20° N 01:57:54 10° NE
Cosmos 2263 Rocket 4.4 01:50:54 10° N 01:54:51 19° NE 01:56:25 17° ENE
COSMOS 2455 4.4 01:59:07 30° NE 01:59:07 30° NE 02:02:02 10° NE
USA 215 4.0 02:04:06 10° ENE 02:10:20 48° N 02:16:32 10° WNW
ATLAS 3B R/B 3.4 02:13:16 52° NNW 02:13:16 52° NNW 02:19:37 10° NE
SL-16 R/B 3.8 02:33:24 32° ENE 02:34:17 33° ENE 02:39:44 10° N
NOSS 3-2 (A) 4.2 02:44:16 53° NNE 02:44:16 53° NNE 02:49:26 10° NE
Cosmos 2322 Rocket 4.0 02:58:56 23° E 02:58:56 23° E 03:02:15 10° NE
USA 238 DEB 4.4 03:01:51 44° NW 03:02:11 45° NNW 03:08:54 10° NE
USA 238 4.4 03:01:58 45° NW 03:02:16 45° NNW 03:09:01 10° NE
SL-16 R/B 3.9 03:04:10 25° E 03:04:10 25° E 03:07:49 10° NE
Resurs 1-4 Rocket 3.8 03:04:19 10° NE 03:08:11 26° E 03:08:11 26° E
Cosmos 1697 Rocket 3.6 03:11:50 45° NNE 03:11:50 45° NNE 03:15:46 10° NNE
CZ-2D R/B 3.7 03:06:23 10° NE 03:10:47 28° E 03:10:47 28° E
Lacrosse 4 Rocket 4.1 03:15:36 10° NNW 03:17:01 17° N 03:17:01 17° N
CZ-4C R/B 4.5 03:15:00 12° NW 03:19:23 24° N 03:24:51 10° NE
NPP 4.4 03:18:11 10° NNE 03:22:08 49° NNE 03:22:08 49° NNE
Cosmos 2360 Rocket 4.2 03:27:51 17° ESE 03:28:47 17° E 03:32:23 10° ENE
Cosmos 1980 Rocket 2.8 03:30:15 55° NNE 03:30:15 55° NNE 03:34:39 10° NNE
NOSS 3-2 (C) 3.9 03:31:51 57° NNW 03:31:51 57° NNW 03:38:30 10° NE
ADEOS Rocket 3.9 03:31:38 10° NNE 03:36:45 35° E 03:37:12 34° ESE
Cosmos 2263 Rocket 2.9 03:34:11 10° NNW 03:38:04 45° NNW 03:38:04 45° NNW
ATLAS 5 CENTAUR R/B 4.1 03:35:31 10° NW 03:40:16 28° NNE 03:45:27 10° E
COSMOS 2455 4.0 03:42:15 31° NW 03:42:29 32° NW 03:47:50 10° NNE
CENTAUR R/B 2.5 03:43:40 77° ESE 03:43:40 77° ESE 03:50:31 10° NE
Cosmos 1553 Rocket 4.3 03:48:09 58° NW 03:48:09 58° NW 03:53:49 10° N
USA 81 4.5 03:48:30 60° NE 03:48:30 60° NE 03:52:56 10° N
Cosmos 1992 Rocket 4.4 03:52:45 60° NE 03:52:45 60° NE 03:57:03 10° NNE
USA 215 3.4 03:46:23 10° ESE 03:52:54 71° NNE 03:59:26 10° WNW
ADEOS 3.9 03:48:59 10° NNE 03:53:46 60° ENE 03:53:46 60° ENE
Meteor 1-5 Rocket 4.3 03:49:51 10° N 03:54:31 64° NNE 03:54:31 64° NNE
S3M 4.4 03:58:50 50° NW 03:58:50 50° NW 04:04:02 10° N
IRS-1C 4.4 03:59:08 10° N 04:03:45 62° NNW 04:03:45 62° NNW
ATLAS 3B R/B 4.3 04:00:29 16° WNW 04:04:56 28° NNW 04:10:47 10° NE
Spot 4 Rocket 4.1 04:00:57 10° NNE 04:05:37 72° NNE 04:05:37 72° NNE
Cosmos 2315 Rocket 4.0 04:06:00 66° SSE 04:06:51 77° E 04:13:05 10° NNE
ARIANE 5 R/B 2.5 04:09:24 10° NNE 04:14:22 82° NE 04:14:22 82° NE
Cosmos 1709 Rocket 3.9 04:11:09 10° NNW 04:17:17 67° W 04:17:17 67° W
SL-16 R/B 2.8 04:18:29 52° WNW 04:18:29 52° WNW 04:23:47 10° NNW
BREEZE M DEB (TANK) 4.5 04:04:50 10° W 04:28:28 88° S 04:34:02 10° E
Cosmos 1544 Rocket 4.0 04:24:24 10° N 04:28:50 60° ENE 04:29:33 52° ESE
Cosmos 2074 Rocket 4.1 04:24:53 10° N 04:31:11 75° E 04:35:49 19° SSE
Cosmos 44 4.4 04:35:33 30° NW 04:35:42 30° NW 04:39:50 10° NNE
Okean 3 4.3 04:37:25 42° NNW 04:37:25 42° NNW 04:40:31 10° N
IRS-1D 3.6 04:34:52 10° N 04:39:37 57° WNW 04:39:37 57° WNW
Cosmos 2322 Rocket 2.2 04:40:45 59° W 04:41:25 64° WNW 04:47:02 10° NNE
Cosmos 1975 3.3 04:38:05 10° N 04:42:08 60° ENE 04:42:58 48° SE
Celestis-02/Orion 38 4.4 04:40:40 10° NNE 04:45:46 72° WNW 04:46:28 62° WSW
Meteor 1-27 Rocket 4.4 04:45:37 39° WNW 04:45:51 39° WNW 04:51:21 10° N
Cosmos 1777 Rocket 3.9 04:41:03 10° NNW 04:46:19 67° WSW 04:46:58 60° SSW
SL-16 R/B 2.3 04:46:02 54° W 04:46:55 60° WNW 04:52:34 10° NNE
Resurs 1-4 Rocket 2.3 04:43:44 10° N 04:48:51 52° WNW 04:49:17 51° W
SL-8 R/B 3.5 04:48:52 74° SW 04:49:08 77° S 04:53:54 10° E
Okean O Rocket 3.1 04:46:40 10° NNE 04:50:45 34° E 04:54:01 14° SSE
CZ-2D R/B 2.4 04:46:05 10° N 04:51:25 52° WNW 04:52:07 48° W
Cosmos 2219 Rocket 4.3 04:50:23 10° SSE 04:54:34 22° E 04:58:44 10° NE
Cosmos 1378 Rocket 4.5 04:55:35 34° NW 04:55:35 34° NW 04:58:48 10° N
Cosmos 1697 Rocket 4.4 04:53:34 18° WNW 04:55:03 19° NW 04:59:05 10° N
COSMOS 2428 3.9 04:51:56 16° SSE 04:55:58 38° ESE 05:01:10 10° NE
Cosmos 1346 Rocket 4.3 04:57:56 24° NW 04:57:56 24° NW 05:00:08 10° N
Genesis I 3.5 04:57:15 54° NNW 04:57:15 54° NNW 05:00:58 10° NNE
Cosmos 1844 Rocket 2.9 04:51:32 10° NNW 04:57:09 70° ENE 05:02:42 10° SE
Lacrosse 4 Rocket4.205:03:25SSE05:03:25SSE04:53:16NW
MOZ.5/SAFIR/RUBIN 5/SL-8 4.2 05:02:44 43° WNW 05:02:44 43° WNW 05:06:36 10° NNW
Cosmos 1455 Rocket 2.9 04:58:08 10° NNW 05:02:33 77° W 05:03:47 47° S
Cosmos 2184 Rocket 3.9 05:01:42 10° NNW 05:07:50 65° W 05:12:43 17° S
CZ-4C R/B 4.3 05:04:00 10° NW 05:09:55 33° NNE 05:16:30 10° E
Cosmos 2360 Rocket 2.1 05:09:38 36° SSW 05:12:02 85° WNW 05:17:44 10° NNE
Cosmos 2278 Rocket 3.3 05:07:06 10° NNW 05:12:35 45° NE 05:18:00 10° SE
ADEOS II 2.9 05:07:36 10° NNE 05:12:44 50° E 05:17:49 10° S
Cosmos 1975 Rocket 3.5 05:13:10 40° WNW 05:13:10 40° WNW 05:17:16 10° N
Cosmos 1980 Rocket 3.8 05:12:01 19° WNW 05:13:48 21° NW 05:18:06 10° N
Cosmos 1812 2.9 05:15:12 51° WNW 05:15:12 51° WNW 05:18:58 10° N
Gblst 52 Del rocket 4.5 05:14:40 36° WSW 05:16:17 45° SW 05:22:07 10° SE
Cosmos 1340 2.5 05:19:10 47° SSW 05:20:11 83° W 05:24:00 10° N
ADEOS Rocket 3.3 05:17:12 10° N 05:22:24 39° WNW 05:24:09 31° WSW
Cosmos 2237 Rocket 4.5 05:18:13 10° SSE 05:22:30 22° E 05:26:47 10° NE
Cosmos 2263 Rocket 4.2 05:19:08 10° NW 05:19:43 12° WNW 05:19:43 12° WNW
ATLAS 5 CENTAUR R/B 2.6 05:20:03 10° NW 05:25:53 74° NE 05:32:16 10° SE
Cosmos 1666 3.5 05:22:46 10° N 05:26:35 54° ENE 05:30:24 10° SSE
CZ-2D R/B 4.1 05:22:56 10° N 05:27:06 40° WNW 05:28:04 35° W
Orbus 7S? 4.5 05:28:20 23° W 05:31:53 48° NNW 05:35:22 10° NE
Cosmos 1536 Rocket 3.5 05:30:12 23° SSW 05:32:55 75° W 05:37:26 10° N
Cosmos 2208 Rocket 4.2 05:29:24 15° SSW 05:33:54 76° ESE 05:39:21 10° NNE
Cosmos 1743 2.6 05:30:14 10° NNW 05:34:07 78° W 05:37:57 10° S
CENTAUR R/B 3.6 05:30:50 21° W 05:34:48 39° NNW 05:41:39 10° NE
ERBS 4.0 05:32:17 13° NW 05:34:59 33° NNE 05:38:12 10° E
PAYLOAD B 4.4 05:30:25 10° NNE 05:36:04 80° ESE 05:41:41 10° SSW
USA 215 3.4 05:29:48 10° SSE 05:36:08 50° SW 05:42:29 10° WNW
UNKNOWN OBJECT B 4.1 05:35:47 10° NNW 05:38:42 22° WNW 05:38:42 22° WNW
PSLV R/B 3.7 05:36:41 10° NNE 05:41:02 76° ESE 05:45:24 10° S
Cosmos 1867 3.5 05:35:46 10° NW 05:41:17 90° ESE 05:46:44 10° SE
Cosmos 2154 Rocket 3.9 05:35:41 10° NNW 05:41:50 66° W 05:47:57 10° S
CZ-4B R/B 2.5 05:38:13 10° N 05:41:50 77° WNW 05:44:13 21° SSW
MTI 3.8 05:40:00 14° S 05:42:43 56° W 05:46:00 10° NNW
Cosmos 2333 Rocket 3.4 05:38:20 10° S 05:43:38 41° ESE 05:48:59 10° NE
Meteor 1-31 Rocket 4.5 05:40:45 10° NNE 05:44:15 33° E 05:47:43 10° SSE
Cosmos 2322 3.9 05:46:44 22° SW 05:50:22 55° NW 05:56:01 10° NNE
ARIANE 5 R/B 4.1 05:49:45 10° NNW 05:53:04 18° NW 05:54:43 15° W
Okean 1-7 Rocket 4.0 05:49:02 10° S 05:53:30 66° E 05:57:57 10° NNE
EO 1 Del DPAF 3.6 05:50:33 10° S 05:54:13 41° W 05:57:55 10° NNW
Meteor PRIRODA 4.1 05:54:02 10° NNE 05:57:47 64° ESE 06:01:32 10° S
ATLAS 3B R/B 4.4 05:51:51 10° NW 05:57:52 28° NNE 06:03:38 10° ENE
Cosmos 1606 Rocket 4.2 05:55:12 10° N 05:59:40 62° ENE 06:04:06 10° SSE
Cosmos 990 Rocket 4.2 05:54:51 10° NNW 06:00:04 76° ENE 06:05:14 10° SSE
Cosmos 2150 Rocket 4.0 05:55:53 10° NNW 06:01:12 85° WSW 06:06:33 10° SSE
SL-8 Rocket 4.1 05:55:22 10° N 06:01:38 85° E 06:07:50 10° S
Thor Agena Rocket 3.8 05:57:58 10° SSE 06:03:00 73° ENE 06:08:03 10° NNW
Cosmos 1844 3.9 06:00:03 10° NW 06:05:36 50° WSW 06:11:06 10° S
Iridium 2 4.0 06:02:02 10° N 06:05:52 71° E 06:09:41 10° SSE
Tiangong 2 3.5 06:06:42 10° SSW 06:06:42 10° SSW 06:07:06 10° SSW
Nadezhda 1 Rocket 4.3 06:01:18 12° SW 06:06:42 43° WNW 06:12:28 10° N
Cosmos 1898 Rocket 3.5 06:01:54 10° NNW 06:07:03 60° WSW 06:12:07 10° S
Cosmos 2181 Rocket 4.0 06:01:45 10° S 06:07:59 87° W 06:14:22 10° N
Cosmos 1570 Rocket 4.2 06:04:43 13° SW 06:09:17 55° WNW 06:14:27 10° NNE
Cosmos 2333 4.2 06:03:53 10° SW 06:09:33 76° WNW 06:15:19 10° NNE
MOS 1 Rocket 4.2 06:05:40 10° N 06:09:50 30° WNW 06:12:55 15° WSW
Cosmos 468 Rocket 4.3 06:05:14 10° SSW 06:10:23 69° ESE 06:15:37 10° NNE
CZ-4B DEB 4.3 06:06:46 10° N 06:12:16 61° WNW 06:17:44 10° SSW
CZ-4B R/B 3.3 06:07:07 10° N 06:12:42 61° WNW 06:18:11 10° SSW
Meteor 1-13 Rocket 4.3 06:07:55 10° SSW 06:13:23 61° WNW 06:19:00 10° N
ERS-2 2.2 06:12:50 10° NNE 06:16:35 84° ESE 06:20:17 10° SSW
SL-16 R/B 4.4 06:14:14 10° SSE 06:18:53 27° ESE 06:23:33 10° NE
IRS-1C Rocket 4.4 06:15:45 10° N 06:20:48 48° WNW 06:25:49 10° SW
Cosmos 2341 Rocket 4.3 06:16:39 10° NNW 06:22:33 45° W 06:28:24 10° SSW
Cosmos 1238 Rocket 3.1 06:21:09 12° SW 06:23:23 28° WNW 06:26:05 10° NNW
Cosmos 2228 3.8 06:19:54 10° N 06:24:10 57° ENE 06:28:27 10° SSE
IRAS Rocket 4.4 06:20:53 10° N 06:26:17 55° WNW 06:31:41 10° SW
Cosmos 2322 Rocket 4.0 06:23:00 10° WNW 06:26:38 17° NW 06:30:19 10° N
Okean O Rocket 2.5 06:23:09 10° N 06:27:04 31° WNW 06:30:58 10° SW
Resurs 1-4 Rocket 4.2 06:26:36 10° NW 06:27:33 10° NW 06:28:30 10° WNW
Cosmos 2218 Rocket 4.0 06:22:23 10° NNW 06:28:48 75° W 06:35:07 10° S
Cosmos 405 3.9 06:25:30 10° N 06:28:59 53° ENE 06:32:27 10° SSE
Cosmos 1980 4.0 06:23:27 10° SSW 06:29:04 72° ESE 06:34:43 10° NNE
CZ-2D R/B 4.2 06:28:50 10° NNW 06:30:18 11° NW 06:31:46 10° WNW
SL-8 R/B 4.2 06:26:54 10° W 06:31:26 43° SSW 06:35:57 10° SE
SL-16 R/B 4.0 06:28:39 10° WNW 06:32:16 17° NNW 06:35:53 10° N
Cosmos 1726 Rocket 3.5 06:30:13 10° NNW 06:34:40 72° W 06:39:06 10° S
COSMO-SKYMED 1 2.6 06:30:40 10° SSE 06:35:01 88° ENE 06:39:23 10° NNW
Cosmos 1809 Rocket 4.5 06:29:29 10° N 06:35:43 85° W 06:41:54 10° S
Cosmos 1937 Rocket 3.8 06:31:02 10° NNW 06:36:09 48° WSW 06:41:13 10° S
Cosmos 1025 Rocket 3.1 06:33:20 10° SSW 06:37:40 57° WNW 06:42:02 10° N
Cosmos 1763 Rocket 4.0 06:32:45 10° S 06:37:46 64° ESE 06:42:52 10° NNE
Cosmos 2219 Rocket 2.2 06:32:24 10° SW 06:37:58 69° WNW 06:43:35 10° NNE
Cosmos 1437 2.7 06:35:14 10° SSW 06:38:30 78° WNW 06:41:48 10° N
Timation 1 Rocket 4.3 06:33:36 10° NW 06:39:35 69° WSW 06:45:31 10° SSE
COSMOS 2428 3.2 06:34:46 10° SW 06:40:11 44° NW 06:45:39 10° NNE
Cosmos 1844 Rocket 3.8 06:36:21 10° NW 06:40:29 22° W 06:44:34 10° SSW
SJ-6F 4.4 06:36:51 10° NNE 06:40:57 84° WNW 06:45:01 10° SSW
Okean-O 2.6 06:36:40 10° N 06:41:05 68° WNW 06:45:29 10° SSW
Meteor 1-28 Rocket 3.3 06:42:02 10° SSE 06:45:50 89° SW 06:49:42 10° NNW
Meteor 1-23 Rocket 4.3 06:40:42 10° SSW 06:46:26 63° WNW 06:52:11 10° N
NOSS 0 Rocket 4.0 06:41:28 10° SSW 06:47:39 84° WNW 06:53:51 10° NNE
Cosmos 1892 Rocket 3.5 06:44:13 10° SSW 06:48:34 83° W 06:53:00 10° N
NOAA 6 4.1 06:44:22 10° NNE 06:49:31 89° WNW 06:54:39 10° SSW
Cosmos 841 Rocket 3.9 06:46:37 10° SSW 06:51:44 69° ESE 06:56:52 10° NNE
